Theta_e
333 331 332 334 336 339 339 341 350 351 351 352 352 352 345 345 346 348 346 343 343 342
334 333 332 334 337 337 344 343 342 343 347 348 349 350 349 341 323 323 341 344 344 341
327 331 333 333 334 337 339 344 345 343 331 327 324 329 326 325 322 324 322 331 339 340
327 327 329 331 335 336 339 342 342 338 333 330 324 327 326 322 321 320 320 323 332 337
326 328 327 327 328 331 329 337 342 331 323 323 324 323 324 319 322 321 320 321 329 338
326 324 324 322 324 322 328 334 340 329 326 321 323 321 322 324 326 325 329 333 335 335
321 322 322 321 319 321 320 325 332 328 325 323 324 323 323 324 327 331 329 334 336 333
320 322 320 320 320 318 315 318 325 331 326 323 330 327 323 329 329 327 324 325 324 324
313 319 320 319 319 317 315 315 319 325 325 329 329 310 315 323 324 324 323 321 322 319
314 313 318 318 317 315 315 316 318 321 320 321 318 306 309 317 325 324 324 325 325 321
312 312 314 318 316 316 316 316 316 320 317 317 323 304 305 312 327 327 327 327 326 324
310 310 312 316 316 316 314 316 319 320 321 322 314 301 302 313 327 326 326 326 325 325
309 310 309 315 317 318 317 315 317 321 324 318 325 301 298 313 322 323 322 324 325 309
307 307 310 312 317 318 317 317 315 317 322 324 322 316 301 299 318 319 320 320 321 322
Wind_Speed
11 11 12 13 13 14 15 16 14 21 22 23 21 19 18 14 15 15 15 19 13 10
10 13 14 16 14 13 17 15 21 12 25 26 22 17 21 11 7 10 18 16 13 7
14 13 17 15 17 17 18 17 17 16 6 6 6 11 12 4 7 3 16 22 10 6
10 13 13 13 15 17 17 18 17 11 9 6 10 8 11 15 13 12 17 19 19 15
9 11 13 12 11 11 22 23 18 9 10 11 16 15 16 14 12 17 20 23 27 16
6 10 10 13 9 15 24 21 12 11 13 13 15 18 14 15 19 11 7 18 16 9
9 10 10 11 11 13 12 23 11 12 10 11 11 15 14 24 18 21 28 18 9 6
9 11 12 13 9 12 15 19 26 16 18 25 21 22 30 19 6 13 11 9 9 8
11 13 11 13 9 4 10 21 25 11 12 5 8 12 13 12 6 10 10 8 8 8
13 13 11 10 12 4 1 3 15 18 9 13 17 11 16 14 7 8 7 7 7 6
15 14 14 8 10 6 3 4 5 16 7 8 13 10 17 17 8 6 7 7 8 5
19 18 14 12 9 10 5 8 5 5 11 6 6 6 9 10 9 8 7 6 7 8
20 19 15 14 11 10 7 8 8 4 4 8 3 4 3 6 6 8 5 3 3 6
17 19 16 14 12 9 8 8 8 7 4 6 4 5 8 10 4 5 5 5 4 3
Wind_Direction
281 278 272 251 243 254 253 260 235 208 215 217 217 220 218 217 211 207 207 184 190 187
292 277 266 268 259 257 247 253 257 245 219 209 218 230 221 214 89 45 261 189 166 152
307 304 306 264 254 255 261 261 256 253 200 276 65 338 325 212 128 59 59 331 265 180
302 308 298 306 292 262 263 261 252 241 240 180 171 137 335 295 125 124 124 257 285 249
324 313 320 314 321 336 311 273 253 171 140 133 147 165 178 194 247 170 157 230 240 222
307 317 329 331 334 322 301 259 240 161 174 186 186 157 176 220 217 156 181 217 208 206
300 302 309 320 0 346 332 303 170 167 180 237 151 176 167 222 208 169 199 189 170 146
281 265 290 301 342 345 345 335 315 171 178 218 185 181 180 198 131 115 120 127 123 109
285 281 272 285 285 37 13 349 301 322 3 41 166 121 121 117 113 109 113 119 106 122
260 275 267 272 276 260 258 317 309 321 78 48 334 103 108 111 117 128 140 137 126 156
278 259 269 242 266 265 132 226 338 305 242 147 211 195 143 137 147 135 138 137 136 167
280 282 267 242 224 254 218 252 209 267 313 224 116 143 138 142 150 140 144 150 163 165
271 276 277 257 219 219 215 245 269 239 300 353 95 122 334 176 160 147 142 172 150 133
267 276 267 279 232 200 218 222 244 295 318 323 299 169 188 266 192 168 159 180 179 140